Stations météo

Publicité
Clermont-Ferrand, France (7460): Température de l'air & dewpoint: 25.05.2020 05:00:00 - 31.05.2020 05:00:00 (CEST)Clermont-Ferrand, France (7460): Température de l'air 5cm: 25.05.2020 05:00:00 - 31.05.2020 05:00:00 (CEST)Clermont-Ferrand, France (7460): Température de l'air -20cm & Température de l'air -100cm: 25.05.2020 05:00:00 - 31.05.2020 05:00:00 (CEST)Clermont-Ferrand, France (7460): Vitesse du vent & gusts: 25.05.2020 05:00:00 - 31.05.2020 05:00:00 (CEST)Clermont-Ferrand, France (7460): Direction du vent: 25.05.2020 05:00:00 - 31.05.2020 05:00:00 (CEST)Clermont-Ferrand, France (7460): reduced air pressure: 25.05.2020 05:00:00 - 31.05.2020 05:00:00 (CEST)Clermont-Ferrand, France (7460): visibility: 25.05.2020 05:00:00 - 31.05.2020 05:00:00 (CEST)Clermont-Ferrand, France (7460): Ensoleillement: 25.05.2020 05:00:00 - 31.05.2020 05:00:00 (CEST)Clermont-Ferrand, France (7460): Quantités de précipitations: 25.05.2020 05:00:00 - 31.05.2020 05:00:00 (CEST)
Date & Time tt [°C] td [°C] tt 5cm [°C] tt -20cm [°C] tt -100cm [°C] ff [km/h] ff [knt] fx [km/h] fx [knt] dd ppp [hPa] vv [km] sd [min] rr [mm]
31.05.2020 05:00:00 - - - - - - - - - - - - - -
31.05.2020 04:00:00 9,9 6,8 4,2 17,8 15,3 0 0 6 4 N 1016,1 51 0 0,0
31.05.2020 03:00:00 11,1 7,2 4,9 17,8 15,3 5 3 7 4 ESE 1016,1 49 0 0,0
31.05.2020 02:00:00 10,9 7,4 4,9 17,7 15,3 3 2 5 3 WSW 1016,4 44 0 0,0
31.05.2020 01:00:00 11,0 6,5 5,8 17,7 15,3 3 1 5 3 W 1016,5 48 0 0,0
31.05.2020 00:00:00 13,9 7,0 7,9 17,7 15,3 4 2 14 8 ESE 1016,0 47 0 0,0
30.05.2020 23:00:00 16,3 7,5 10,2 17,6 15,3 7 4 13 7 NNW 1015,4 44 0 0,0
30.05.2020 22:00:00 17,7 7,4 10,5 17,5 15,3 6 3 16 9 NNW 1015,0 19 2 0,0
30.05.2020 21:00:00 19,9 6,9 19,6 17,5 15,3 9 5 32 17 NNE 1014,3 10 60 0,0
30.05.2020 20:00:00 21,8 7,2 25,4 17,5 15,3 17 9 34 18 NNE 1013,9 29 60 0,0
30.05.2020 19:00:00 23,2 6,9 29,0 17,4 15,3 13 7 37 20 NE 1013,7 27 60 0,0
30.05.2020 18:00:00 23,8 6,1 30,0 17,5 15,3 12 7 29 16 N 1013,8 42 60 0,0
30.05.2020 17:00:00 23,9 5,3 30,8 17,4 15,3 15 8 36 19 N 1014,1 50 60 0,0
30.05.2020 16:00:00 23,5 5,4 30,7 17,4 15,3 14 8 36 19 NNE 1014,5 20 60 0,0
30.05.2020 15:00:00 22,9 5,3 30,6 17,4 15,3 13 7 33 18 N 1014,9 20 60 0,0
30.05.2020 14:00:00 22,4 5,3 29,4 17,5 15,3 16 8 31 17 N 1015,5 19 60 0,0
30.05.2020 13:00:00 22,0 6,6 29,2 17,5 15,3 14 8 28 15 N 1015,7 54 60 0,0
30.05.2020 12:00:00 20,6 8,2 28,1 17,6 15,3 10 6 19 11 N 1016,5 44 60 0,0
30.05.2020 11:00:00 19,0 8,3 26,5 17,6 15,3 5 3 15 8 N 1017,0 32 60 0,0
30.05.2020 10:00:00 17,0 7,1 23,5 17,6 15,3 6 3 13 7 NE 1017,7 20 60 0,0
30.05.2020 09:00:00 16,0 7,2 18,9 17,7 15,3 3 2 8 4 E 1018,0 19 60 0,0
30.05.2020 08:00:00 12,7 6,1 10,9 17,7 15,3 4 2 8 4 N 1018,5 49 60 0,0
30.05.2020 07:00:00 9,1 5,8 5,4 17,7 15,3 3 1 6 4 SE 1019,0 42 18 0,0
30.05.2020 06:00:00 8,1 4,9 6,0 17,7 15,3 3 1 6 4 ENE 1019,0 55 0 0,0
30.05.2020 05:00:00 8,9 5,1 5,2 17,7 15,2 3 1 5 3 WNW 1018,7 56 0 0,0
30.05.2020 04:00:00 9,5 5,5 2,5 17,7 15,2 2 1 4 2 SE 1018,9 59 0 0,0
30.05.2020 03:00:00 9,8 5,2 4,3 17,7 15,3 4 2 7 4 E 1019,0 59 0 0,0
30.05.2020 02:00:00 9,7 5,3 3,9 17,7 15,2 4 2 7 4 SSW 1018,9 60 0 0,0
30.05.2020 01:00:00 12,1 5,3 5,1 17,7 15,2 4 2 8 5 SW 1018,9 60 0 0,0
30.05.2020 00:00:00 11,9 5,3 5,7 17,6 15,2 5 3 9 5 SW 1019,0 60 0 0,0
29.05.2020 23:00:00 13,4 5,0 6,1 17,6 15,2 4 2 12 6 SSE 1018,8 60 0 0,0
29.05.2020 22:00:00 17,0 4,6 10,6 17,5 15,2 7 4 17 9 N 1018,1 34 1 0,0
29.05.2020 21:00:00 19,5 4,4 18,8 17,5 15,3 9 5 32 18 NE 1017,3 39 60 0,0
29.05.2020 20:00:00 21,8 3,0 24,1 17,4 15,2 16 9 32 17 NE 1017,0 30 60 0,0
29.05.2020 19:00:00 22,9 4,4 26,1 17,4 15,2 21 11 39 21 NE 1016,6 21 60 0,0
29.05.2020 18:00:00 23,6 2,4 28,8 17,4 15,2 19 10 41 22 NNE 1016,6 19 60 0,0
29.05.2020 17:00:00 24,1 1,0 28,7 17,4 15,2 19 10 47 26 NNE 1016,5 18 60 0,0
29.05.2020 16:00:00 24,1 1,0 29,2 17,4 15,2 23 12 43 23 NNE 1016,9 21 60 0,0
29.05.2020 15:00:00 23,9 0,2 29,9 17,4 15,2 20 11 41 22 NNE 1017,2 24 60 0,0
29.05.2020 14:00:00 23,2 2,6 29,7 17,5 15,2 18 10 40 21 N 1017,8 20 60 0,0
29.05.2020 13:00:00 22,3 3,9 28,7 17,5 15,2 19 10 35 19 N 1018,4 21 60 0,0
29.05.2020 12:00:00 21,8 5,6 27,5 17,5 15,2 17 9 39 21 NNE 1019,1 19 60 0,0
29.05.2020 11:00:00 19,8 7,5 25,2 17,5 15,2 14 8 29 15 N 1019,5 14 60 0,0
29.05.2020 10:00:00 17,9 7,9 23,2 17,6 15,2 11 6 23 12 N 1020,2 12 60 0,0
29.05.2020 09:00:00 16,8 8,0 19,6 17,6 15,2 13 7 21 12 N 1020,4 19 60 0,0
29.05.2020 08:00:00 15,7 7,5 12,7 17,6 15,2 11 6 20 11 N 1021,0 20 49 0,0
29.05.2020 07:00:00 13,7 7,5 4,0 17,6 15,2 2 1 9 5 NNW 1021,4 21 17 0,0
29.05.2020 06:00:00 11,6 7,5 4,0 17,6 15,2 4 2 11 6 WNW 1021,6 35 0 0,0
29.05.2020 05:00:00 9,1 7,4 4,3 17,6 15,2 5 3 6 4 W 1022,0 13 0 0,0
29.05.2020 04:00:00 10,3 7,9 5,4 17,6 15,2 4 2 5 3 SSW 1022,1 20 0 0,0
29.05.2020 03:00:00 10,5 7,6 6,0 17,6 15,2 2 1 9 5 NNW 1022,2 43 0 0,0
29.05.2020 02:00:00 12,5 8,2 6,6 17,5 15,1 3 1 5 3 SSW 1022,3 45 0 0,0
29.05.2020 01:00:00 13,4 8,5 7,6 17,5 15,2 2 1 6 3 NE 1022,4 43 0 0,0
29.05.2020 00:00:00 12,9 8,8 8,1 17,4 15,1 3 2 7 4 S 1022,7 44 0 0,0
28.05.2020 23:00:00 16,3 9,2 10,3 17,4 15,2 5 3 11 6 NNW 1022,5 20 0 0,0
28.05.2020 22:00:00 18,8 9,3 14,9 17,3 15,1 8 4 16 9 NNE 1022,1 17 0 0,0
28.05.2020 21:00:00 22,2 8,3 21,3 17,3 15,2 11 6 28 15 NE 1021,5 57 60 0,0
28.05.2020 20:00:00 23,8 8,2 25,6 17,2 15,2 13 7 31 17 NE 1021,5 44 60 0,0
28.05.2020 19:00:00 24,6 8,9 28,4 17,2 15,1 17 9 36 19 NE 1021,6 36 60 0,0
28.05.2020 18:00:00 25,1 7,2 29,8 17,2 15,1 17 9 41 22 NNE 1022,0 41 60 0,0
28.05.2020 17:00:00 25,3 8,7 31,1 17,2 15,1 18 10 38 20 N 1022,3 20 60 0,0
28.05.2020 16:00:00 25,0 8,0 31,5 17,2 15,1 14 8 34 18 NNE 1023,0 43 60 0,0
28.05.2020 15:00:00 25,0 8,0 32,3 17,2 15,2 16 9 37 20 NNE 1023,7 46 60 0,0
28.05.2020 14:00:00 24,5 9,2 31,7 17,2 15,1 15 8 30 16 N 1024,3 53 60 0,0
28.05.2020 13:00:00 23,2 8,5 30,9 17,3 15,1 9 5 23 12 NNE 1025,0 34 60 0,0
28.05.2020 12:00:00 21,9 9,1 29,8 17,3 15,1 11 6 26 14 N 1025,9 20 60 0,0
28.05.2020 11:00:00 20,8 7,8 28,7 17,3 15,1 6 3 14 7 ENE 1026,6 20 60 0,0
28.05.2020 10:00:00 18,8 7,6 24,2 17,4 15,1 4 2 10 5 SSW 1027,3 20 60 0,0
28.05.2020 09:00:00 16,1 7,0 17,9 17,4 15,1 3 1 9 5 WSW 1028,2 40 60 0,0
28.05.2020 08:00:00 13,2 6,5 11,2 17,4 15,0 5 3 8 4 NNE 1028,8 45 60 0,0
28.05.2020 07:00:00 9,8 6,0 3,6 17,4 15,1 3 1 5 3 N 1029,3 49 16 0,0
28.05.2020 06:00:00 7,4 4,4 3,5 17,4 15,1 0 0 5 3 N 1029,6 60 0 0,0
28.05.2020 05:00:00 8,1 4,9 3,1 17,4 15,1 4 2 6 3 SW 1029,5 60 0 0,0
28.05.2020 04:00:00 8,7 5,3 3,9 17,4 15,1 3 1 6 3 E 1029,6 60 0 0,0
28.05.2020 03:00:00 10,2 5,4 4,9 17,4 15,1 3 2 14 7 E 1029,4 60 0 0,0
28.05.2020 02:00:00 10,6 5,4 4,4 17,4 15,1 3 1 7 4 S 1029,5 60 0 0,0
28.05.2020 01:00:00 11,6 5,2 5,0 17,3 15,1 3 2 7 4 E 1029,6 60 0 0,0
28.05.2020 00:00:00 13,2 5,1 6,1 17,3 15,1 0 0 9 5 N 1029,5 60 0 0,0
27.05.2020 23:00:00 15,5 5,4 8,2 17,2 15,1 2 1 11 6 SSW 1029,2 60 0 0,0
27.05.2020 22:00:00 18,1 4,3 12,2 17,2 15,1 8 5 14 8 NNW 1028,4 3,9 0 0,0
27.05.2020 21:00:00 20,3 4,3 18,9 17,1 15,0 9 5 28 15 N 1027,8 50 60 0,0
27.05.2020 20:00:00 22,3 2,4 24,5 17,1 15,1 13 7 31 17 NNE 1027,3 44 60 0,0
27.05.2020 19:00:00 23,7 3,0 27,7 17,1 15,1 18 10 34 18 NNE 1027,1 32 60 0,0
27.05.2020 18:00:00 24,2 4,5 30,0 17,1 15,1 16 9 37 20 NNE 1027,2 31 60 0,0
27.05.2020 17:00:00 24,7 6,0 30,4 17,1 15,1 18 10 34 19 NNE 1027,3 32 60 0,0
27.05.2020 16:00:00 24,2 6,5 30,3 17,1 15,1 17 9 - - N 1027,7 19 60 0,0
27.05.2020 15:00:00 23,8 6,6 31,0 17,1 15,1 - - - - - 1028,0 39 60 0,0
27.05.2020 14:00:00 23,0 7,9 30,5 17,1 15,1 - - - - - 1028,5 42 60 0,0
27.05.2020 13:00:00 22,7 8,4 29,4 17,2 15,1 - - - - - 1028,7 41 60 0,0
27.05.2020 12:00:00 20,9 6,4 28,7 17,2 15,1 - - - - - 1029,2 19 60 0,0
27.05.2020 11:00:00 19,2 8,2 26,9 17,2 15,0 - - - - - 1029,8 20 60 0,0
27.05.2020 10:00:00 17,8 8,4 24,1 17,3 15,1 - - - - - 1030,1 26 60 0,0
27.05.2020 09:00:00 16,7 7,3 18,5 17,3 15,0 - - - - - 1030,3 19 60 0,0
27.05.2020 08:00:00 14,1 7,8 10,4 17,3 15,0 4 2 7 4 E 1030,5 29 60 0,0
27.05.2020 07:00:00 8,8 6,2 2,7 17,3 15,0 4 2 6 3 ESE 1031,0 32 16 0,0
27.05.2020 06:00:00 8,5 4,9 2,6 17,3 15,0 3 2 7 4 SSE 1030,6 58 0 0,0
27.05.2020 05:00:00 8,5 4,7 3,7 17,3 15,0 3 2 9 5 SSW 1030,6 59 0 0,0
27.05.2020 04:00:00 12,8 4,2 4,1 17,3 15,0 3 2 9 5 SW 1030,0 60 0 0,0
27.05.2020 03:00:00 13,5 3,8 6,5 17,2 15,0 3 2 11 6 N 1030,2 60 0 0,0
27.05.2020 02:00:00 14,0 4,3 10,3 17,2 15,0 9 5 22 12 NW 1030,3 60 0 0,0
27.05.2020 01:00:00 14,5 4,8 8,0 17,2 15,0 10 5 19 11 NNW 1030,3 59 0 0,0
27.05.2020 00:00:00 15,4 4,7 7,1 17,2 15,0 10 6 15 8 N 1030,2 59 0 0,0
26.05.2020 23:00:00 15,9 4,3 7,1 17,1 15,0 7 4 11 6 N 1030,0 60 0 0,0
26.05.2020 22:00:00 17,0 5,0 11,1 17,1 15,0 8 4 16 8 N 1029,3 17 0 0,0
26.05.2020 21:00:00 20,0 4,1 18,9 17,0 15,0 10 6 33 18 NNE 1028,5 48 58 0,0
26.05.2020 20:00:00 22,3 3,9 24,9 17,0 15,0 18 10 34 18 N 1028,0 33 60 0,0
26.05.2020 19:00:00 23,3 5,2 26,9 17,0 15,0 17 9 37 20 NNE 1027,8 30 60 0,0
26.05.2020 18:00:00 23,7 5,6 28,7 16,9 15,0 20 11 41 22 NNE 1027,9 26 60 0,0
26.05.2020 17:00:00 23,6 7,2 29,5 17,0 15,0 23 13 39 21 NNE 1028,1 23 60 0,0
26.05.2020 16:00:00 23,2 8,1 28,9 17,0 15,0 18 10 40 22 NNE 1028,2 20 60 0,0
26.05.2020 15:00:00 23,0 8,3 29,4 17,0 15,0 21 11 43 23 N 1028,5 20 60 0,0
26.05.2020 14:00:00 22,2 8,3 28,7 17,0 15,0 17 9 39 21 NNE 1029,2 25 60 0,0
26.05.2020 13:00:00 21,1 8,4 27,7 17,0 15,0 20 11 39 21 NNE 1029,7 25 60 0,0
26.05.2020 12:00:00 20,2 9,1 26,5 17,0 15,0 20 11 36 20 N 1029,9 20 60 0,0
26.05.2020 11:00:00 18,9 8,5 24,5 17,1 15,0 14 7 30 16 N 1030,1 4,0 60 0,0
26.05.2020 10:00:00 17,3 9,2 21,1 17,1 15,0 16 9 33 18 N 1030,4 10 60 0,0
26.05.2020 09:00:00 15,9 8,6 18,0 17,1 15,0 17 9 30 16 N 1030,5 27 60 0,0
26.05.2020 08:00:00 14,6 8,8 12,4 17,1 15,0 13 7 25 13 N 1030,6 32 60 0,0
26.05.2020 07:00:00 12,5 8,4 4,7 17,1 15,0 3 2 7 4 SSE 1031,0 33 15 0,0
26.05.2020 06:00:00 10,2 7,1 3,6 17,1 15,0 5 3 7 4 E 1031,0 43 0 0,0
26.05.2020 05:00:00 10,2 6,7 4,4 17,1 15,0 2 1 8 4 ENE 1030,8 35 0 0,0
26.05.2020 04:00:00 11,0 7,3 6,5 17,1 15,0 3 2 9 5 WNW 1030,7 43 0 0,0
26.05.2020 03:00:00 13,7 8,1 11,6 17,0 15,0 8 5 23 13 N 1030,5 46 0 0,0
26.05.2020 02:00:00 14,4 8,6 12,7 17,0 15,0 11 6 22 12 NNW 1030,4 47 0 0,0
26.05.2020 01:00:00 14,6 9,0 11,3 17,0 15,0 12 6 18 10 NNW 1030,8 43 0 0,0
26.05.2020 00:00:00 15,1 9,2 12,4 16,9 15,0 10 6 18 10 NNW 1030,5 40 0 0,0
25.05.2020 23:00:00 15,5 9,8 12,1 16,9 15,0 8 5 13 7 N 1030,4 48 0 0,0
25.05.2020 22:00:00 17,0 9,9 13,8 16,9 15,0 7 4 18 10 N 1029,5 43 0 0,0
25.05.2020 21:00:00 19,7 9,0 18,9 16,8 15,0 13 7 34 18 NE 1028,7 48 58 0,0
25.05.2020 20:00:00 21,0 8,6 23,3 16,8 15,0 18 10 37 20 NE 1028,2 40 60 0,0
25.05.2020 19:00:00 21,9 8,7 26,3 16,8 15,0 21 11 36 20 NNE 1028,0 33 60 0,0
25.05.2020 18:00:00 22,4 8,5 28,1 16,7 14,9 17 9 43 23 NNE 1028,1 34 60 0,0
25.05.2020 17:00:00 22,7 9,1 28,7 16,8 14,9 15 8 39 21 NNE 1028,2 38 60 0,0
25.05.2020 16:00:00 22,4 9,2 29,1 16,7 14,9 18 10 39 21 N 1028,7 38 60 0,0
25.05.2020 15:00:00 21,6 9,8 28,8 16,8 14,9 17 9 34 18 N 1029,0 40 60 0,0
25.05.2020 14:00:00 21,0 9,3 27,9 16,8 14,9 14 7 29 15 NNW 1029,5 46 60 0,0
25.05.2020 13:00:00 19,8 9,9 26,5 16,8 14,9 11 6 27 14 N 1029,8 45 60 0,0
25.05.2020 12:00:00 18,7 9,5 25,6 16,9 14,9 8 4 26 14 N 1030,1 50 60 0,0
25.05.2020 11:00:00 16,9 8,6 24,7 16,9 14,9 7 4 17 9 NNE 1030,8 20 60 0,0
25.05.2020 10:00:00 15,5 9,6 22,1 16,9 14,9 7 4 17 9 NNE 1031,4 34 60 0,0
25.05.2020 09:00:00 14,0 8,0 17,3 17,0 14,9 5 3 10 5 NNE 1031,7 29 60 0,0
25.05.2020 08:00:00 11,9 8,4 7,8 17,0 14,9 4 2 7 4 ESE 1032,4 24 60 0,0
25.05.2020 07:00:00 7,7 6,5 2,7 17,0 14,9 3 2 5 3 SSE 1032,8 44 13 0,0
25.05.2020 06:00:00 5,9 4,5 2,0 17,0 14,9 2 1 5 3 SSW 1032,8 55 0 0,0
25.05.2020 05:00:00 7,3 5,1 2,9 17,0 14,9 4 2 8 4 SE 1032,3 54 0 0,0

tt = Température de l'air
td = dewpoint
tt 5cm = Température de l'air 5cm
tt -20cm = Température de l'air -20cm
tt -100cm = Température de l'air -100cm
ff = Vitesse du vent
fx = gusts
dd = Direction du vent
ppp = reduced air pressure
vv = visibility
sd = Ensoleillement
rr = Quantités de précipitations

stations d'obs. à proximité